Location: Casone le Fosse
(44.6547°N, 12.1103°E)
Time: 10:21:52
(UTC+00:00)

CSL-04 DEB - Pass Details

Date: 29 October 2020
Orbit: 545 x 628 km, 98.8° (Epoch: 27 November)

Event Time Altitude Azimuth Distance (km) Brightness Sun altitude
Rises 16:29:51 0° 13° (NNE) 2,731 7.6 -5.2°
Reaches altitude 10° 16:31:59 10° 12° (NNE) 1,827 6.7 -5.6°
Maximum altitude 16:35:55 79° 285° (WNW) 561 4.5 -6.3°
Drops below altitude 10° 16:39:49 10° 200° (SSW) 1,811 7.4 -6.9°
Sets 16:41:55 0° 199° (SSW) 2,704 8.3 -7.3°
